Regional Weather Roundup
Issued by NWS

Home | Current Version | Previous Version | Graphics & Text | Print | Product List | Glossary On
Versions: 1 2 3 4 5 6 7 8 9 10 11 12 13 14 15 16 17 18 19 20 21 22 23 24 25 26 27 28 29 30 31 32 33 34 35 36 37 38 39 40 41 42 43 44 45 46 47 48 49 50
000
ASUS45 KBOU 252007
RWRCO

WEATHER ROUNDUP FOR COLORADO
NATIONAL WEATHER SERVICE DENVER/BOULDER CO
200 PM MDT MON MAY 25 2015

NOTE: "FAIR" INDICATES FEW OR NO CLOUDS BELOW 12000 FEET WITH NO
SIGNIFICANT WEATHER AND/OR OBSTRUCTIONS TO VISIBILITY.

COZ001>005-013-030-031-252100-
...NORTHWEST COLORADO...

CITY           SKY/WX    TMP DP  RH WIND       PRES   REMARKS
CRAIG          PTSUNNY   58  41  53 W8        30.00F
HAYDEN         MOSUNNY   55  37  50 W8        30.02S
MEEKER         PTSUNNY   57  41  55 MISG      30.01S
MOUNT WERNER   NOT AVBL
STEAMBOAT SPGS CLOUDY    48  41  77 NE6       30.02S
WALDEN         CLOUDY    43  36  75 NE7       30.03R
$$

COZ006>008-011-252100-
...WEST CENTRAL VALLEYS...

CITY           SKY/WX    TMP DP  RH WIND       PRES   REMARKS
GRAND JUNCTION MOSUNNY   63  43  48 S5        29.97F
MONTROSE       CLOUDY    56  44  64 W5        30.04S
EAGLE          LGT RAIN  57  37  47 SW15      30.01F
RIFLE          MOSUNNY   59  42  53 MISG      30.00F
DELTA          PTSUNNY   64  46  52 MISG      30.01S
NUCLA          PTSUNNY   63  41  45 E5        30.03F
$$

COZ017>023-064>068-252100-
...SOUTHWEST COLORADO...

CITY           SKY/WX    TMP DP  RH WIND       PRES   REMARKS
DURANGO        CLOUDY    58  39  49 S9G18     30.05S
CORTEZ         SUNNY     62  42  47 SW13G21   30.01F
PAGOSA SPRINGS TSTM      49  41  73 SE6       30.08R
TELLURIDE      TSTM      46  38  74 W13       30.14R
WOLF CREEK PAS NOT AVBL
$$

COZ009-010-012-014-032>034-037-058>063-252100-
...CENTRAL COLORADO...

CITY           SKY/WX    TMP DP  RH WIND       PRES   REMARKS
ASPEN          LGT RAIN  47  38  71 W6        30.06S
BUENA VISTA    CLOUDY    53  31  43 SW3       30.02S
COPPER MTN     CLOUDY    37  25  60 W21G29    30.18S
BERTHOUD PASS  CLOUDY    27  19  74 NW17      30.19S WCI  14
COTTONWOOD PAS LGT RAIN  45  34  65 NW14G29   30.10S
GUNNISON       PTSUNNY   52  36  54 NW3       30.07S
KREMMLING      RAIN      50  36  57 SW13      30.04R
LEADVILLE      PTSUNNY   42  31  64 W21G30    30.10R
SALIDA         PTSUNNY   59  35  40 W25G35    30.09R
SUNLIGHT       CLOUDY    37  36  93 CALM      30.20R FOG
WILKERSON PASS MOSUNNY   43  23  45 W5        30.17S
$$

COZ069>075-252100-
...SAN LUIS VALLEY/SANGRE DE CRISTO MOUNTAINS...

CITY           SKY/WX    TMP DP  RH WIND       PRES   REMARKS
ALAMOSA        MOSUNNY   61  33  35 NE13G21   30.01S
LA VETA PASS   PTSUNNY  N/A N/A N/A MISG      30.12S THUNDER
SAGUACHE       MOSUNNY   57  34  41 NW17G26   30.02F
$$

COZ035-036-038>040-252100-
...NORTHERN COLORADO FRONT RANGE...

CITY           SKY/WX    TMP DP  RH WIND       PRES   REMARKS
DENVER INTL AP PTSUNNY   65  42  43 VRB6      29.91S
DMNS CITY PARK   N/A     66  38  35 E12       29.89F
AURORA         NOT AVBL
FRONT RANGE AP NOT AVBL
ERIE MUNI ARPT MOSUNNY   65  42  43 E5        29.89F
BOULDER MUN AP MOSUNNY   63  41  45 E3        29.90S
CENTENNIAL     PTSUNNY   63  36  36 VRB3      29.91S
BROOMFIELD     PTSUNNY   64  41  42 NE8       29.91F
FORT COLLINS   PTSUNNY   66  45  45 CALM      29.90F
LONGMONT       PTSUNNY   68  43  40 N6        29.91S
$$

COZ041-046-047-076>085-087-088-252100-
...PIKES PEAK/PALMER DIVIDE AND SOUTHERN FOOTHILLS...

CITY           SKY/WX    TMP DP  RH WIND       PRES   REMARKS
COLO. SPRINGS  PTSUNNY   62  38  40 SE13      29.95R
A. F. ACADEMY  MOSUNNY   60  38  44 SE7       29.94R
ELLICOTT       NOT AVBL
FALCON         CLOUDY    60  36  40 SE10G21   29.98S
FORT CARSON    NOT AVBL
LIMON          PTSUNNY   62  43  49 VRB6      29.95R
MONUMENT HILL  NOT AVBL
TRINIDAD       LGT RAIN  59  44  57 E9        29.94S
$$

COZ042>045-048>051-090-091-252100-
...NORTHEAST COLORADO...

CITY           SKY/WX    TMP DP  RH WIND       PRES   REMARKS
GREELEY ARPT   PTSUNNY   63  46  55 E18       29.92R
AKRON          PTSUNNY   57  46  66 NW21G28   29.92R
BURLINGTON     PTSUNNY   66  45  46 NW7       29.92R
WRAY           CLOUDY    62  45  53 W14G21    29.91R
STERLING       PTSUNNY   57  46  67 N18G26    29.89S
HOLYOKE        NOT AVBL
FORT MORGAN    PTSUNNY   61  46  57 NW17      29.92R
$$

COZ086-089-092>099-252100-
...SOUTHEAST COLORADO...

CITY           SKY/WX    TMP DP  RH WIND       PRES   REMARKS
PUEBLO         SUNNY     67  44  43 SE13      29.88F
LA JUNTA       PTSUNNY   68  48  48 SE6       29.89F
LAMAR          PTSUNNY   71  49  45 VRB7      29.86F
SPRINGFIELD      N/A     70  42  36 VRB3      29.89S
$$


USA.gov is the U.S. government's official web portal to all federal, state and local government web resources and services.